Preview of NWS' New Version of Forecast
This preview is not operational and should not be used for support decisions.

Regional Weather Roundup (RWR)

Issued by National Weather Service (NWS)

                            
000
ASUS45 KCYS 200510
RWRWY 

WYOMING REGIONAL WEATHER ROUNDUP
NATIONAL WEATHER SERVICE CHEYENNE WY
1100 PM MDT FRI APR 19 2019

NOTE:  "FAIR" INDICATES FEW OR NO CLOUDS BELOW 12,000 FEET
WITH NO SIGNIFICANT WEATHER AND/OR OBSTRUCTIONS TO VISIBILITY.

WYZ001-200600-
YELLOWSTONE NATIONAL PARK
  
CITY           SKY/WX    TMP DP  RH WIND       PRES   REMARKS
LK YELLOWSTONE   N/A     32  27  81 CALM      30.06F                  
W YELLOWSTONE  NOT AVBL                                               

$$
WYZ002>013-054>058-071-098>099-200600-
NORTHERN WYOMING
  
CITY           SKY/WX    TMP DP  RH WIND       PRES   REMARKS
JACKSON        FAIR      47  30  51 SW3       30.02F                  
CODY           FAIR      62  30  29 W12       29.87F                  
GREYBULL       FAIR      58  29  33 SE6       29.80F                  
WORLAND        FAIR      52  33  48 CALM      29.82F                  
SHERIDAN       FAIR      53  35  50 NE3       29.80F                  
BUFFALO        FAIR      58  33  39 N5        29.85F                  
GILLETTE       FAIR      50  38  63 S12       29.83F                  
HULETT         FAIR      55  36  47 SE10      29.84F                  
NEWCASTLE      FAIR      50  32  50 N7        29.87F                  

$$
WYZ014>020-022>026-101>103-200600-
CENTRAL WYOMING
  
CITY           SKY/WX    TMP DP  RH WIND       PRES   REMARKS
BIG PINEY      FAIR      50  27  40 SW3       30.07F                  
PINEDALE       FAIR      36  32  87 W5        30.08F WCI  32          
DUBOIS         FAIR      43  27  52 NW15      30.02F                  
LANDER         FAIR      60  30  32 S5        29.91F                  
RIVERTON       FAIR      55  28  35 NW10      29.91F                  
CASPER         FAIR      49  35  58 SW9       29.92F                  
DOUGLAS        FAIR      47  36  65 N3        29.92F                  

$$
WYZ021-027>030-104>119-200600-
SOUTHERN WYOMING
  
CITY           SKY/WX    TMP DP  RH WIND       PRES   REMARKS
EVANSTON       FAIR      49  24  37 SE6       30.07F                  
KEMMERER       FAIR      43  28  56 N7        30.08F                  
ROCK SPRINGS   FAIR      48  29  47 SW9       30.06F                  
DIXON          FAIR      41  28  58 E7        30.10F                  
RAWLINS        FAIR      50  24  36 SW6       30.05F                  
SARATOGA       FAIR      43  25  49 SE8       30.10S                  
LARAMIE        FAIR      40  27  59 SW8       30.09F WCI  34          
CHEYENNE       FAIR      49  33  54 W10       30.04F                  
TORRINGTON     FAIR      57  38  48 S3        29.91F                  
PINE BLUFFS    FAIR      46  34  61 S12       30.00F                  

$$
  

000
ASUS45 KCYS 200510
RWRWY 

WYOMING REGIONAL WEATHER ROUNDUP
NATIONAL WEATHER SERVICE CHEYENNE WY
1100 PM MDT FRI APR 19 2019

NOTE:  "FAIR" INDICATES FEW OR NO CLOUDS BELOW 12,000 FEET
WITH NO SIGNIFICANT WEATHER AND/OR OBSTRUCTIONS TO VISIBILITY.

WYZ001-200600-
...YELLOWSTONE NATIONAL PARK...
  
CITY           SKY/WX    TMP DP  RH WIND       PRES   REMARKS
LK YELLOWSTONE   N/A     32  27  81 CALM      30.06F                  
W YELLOWSTONE  NOT AVBL                                               

$$
WYZ002>013-054>058-071-098>099-200600-
...NORTHERN WYOMING...
  
CITY           SKY/WX    TMP DP  RH WIND       PRES   REMARKS
JACKSON        CLEAR     47  30  51 SW3       30.02F                  
CODY           MOCLDY    62  30  29 W12       29.87F                  
GREYBULL       MOCLDY    58  29  33 SE6       29.80F                  
WORLAND        PTCLDY    52  33  48 CALM      29.82F                  
SHERIDAN       PTCLDY    53  35  50 NE3       29.80F                  
BUFFALO        PTCLDY    58  33  39 N5        29.85F                  
GILLETTE       CLEAR     50  38  63 S12       29.83F                  
HULETT         FAIR      55  36  47 SE10      29.84F                  
NEWCASTLE      FAIR      50  32  50 N7        29.87F                  

$$
WYZ014>020-022>026-101>103-200600-
...CENTRAL WYOMING...
  
CITY           SKY/WX    TMP DP  RH WIND       PRES   REMARKS
BIG PINEY      PTCLDY    50  27  40 SW3       30.07F                  
PINEDALE       CLEAR     36  32  87 W5        30.08F WCI  32          
DUBOIS         FAIR      43  27  52 NW15      30.02F                  
LANDER         MOCLDY    60  30  32 S5        29.91F                  
RIVERTON       MOCLDY    55  28  35 NW10      29.91F                  
CASPER         CLEAR     49  35  58 SW9       29.92F                  
DOUGLAS        CLEAR     47  36  65 N3        29.92F                  

$$
WYZ021-027>030-104>119-200600-
...SOUTHERN WYOMING...
  
CITY           SKY/WX    TMP DP  RH WIND       PRES   REMARKS
EVANSTON       PTCLDY    49  24  37 SE6       30.07F                  
KEMMERER       PTCLDY    43  28  56 N7        30.08F                  
FORT BRIDGER   NOT AVBL                                               
ROCK SPRINGS   CLEAR     48  29  47 SW9       30.06F                  
DIXON          FAIR      41  28  58 E7        30.10F                  
RAWLINS        CLEAR     50  24  36 SW6       30.05F                  
SARATOGA       FAIR      43  25  49 SE8       30.10S                  
LARAMIE        CLEAR     40  27  59 SW8       30.09F WCI  34          
CHEYENNE       CLEAR     49  33  54 W10       30.04F                  
TORRINGTON     CLEAR     57  38  48 S3        29.91F                  
PINE BLUFFS    FAIR      46  34  61 S12       30.00F                  

$$